| time (UTC) | temp F | wind direction | speed MPH | gust MPH | rain 1hr in | rain 24hr in | rain mn in | humidity % | barometer mb |
| 20260504223620 | 53 | 45 | 4.0 | 7.0 | 0.00 | 0.00 | 0.00 | 87 | 1013.1 |
| 20260504222640 | 54 | 23 | 10.0 | 13.0 | 0.00 | 0.00 | 0.00 | 87 | 1013.0 |
| 20260504221620 | 54 | 23 | 4.0 | 7.0 | 0.00 | 0.00 | 0.00 | 87 | 1013.0 |
| 20260504220620 | 54 | 0 | 5.0 | 8.0 | 0.00 | 0.00 | 0.00 | 87 | 1013.1 |
| 20260504215620 | 54 | 23 | 5.0 | 8.0 | 0.00 | 0.00 | 0.00 | 87 | 1013.1 |
| 20260504214650 | 54 | 23 | 6.0 | 11.0 | 0.00 | 0.00 | 0.00 | 87 | 1013.2 |
| 20260504213640 | 54 | 23 | 6.0 | 10.0 | 0.00 | 0.00 | 0.00 | 87 | 1013.3 |
| 20260504212619 | 54 | 68 | 5.0 | 9.0 | 0.00 | 0.00 | 0.00 | 87 | 1013.5 |
| 20260504211640 | 54 | 338 | 4.0 | 9.0 | 0.00 | 0.00 | 0.00 | 87 | 1013.5 |
| 20260504210702 | 54 | 23 | 6.0 | 11.0 | 0.00 | 0.00 | 0.00 | 87 | 1013.6 |
| 20260504205630 | 54 | 45 | 3.0 | 4.0 | 0.00 | 0.00 | 0.00 | 88 | 1013.6 |
| 20260504204721 | 54 | 68 | 2.0 | 4.0 | 0.00 | 0.00 | 0.00 | 87 | 1013.7 |
| 20260504203652 | 54 | 0 | 4.0 | 7.0 | 0.00 | 0.00 | 0.00 | 88 | 1013.7 |
| 20260504202711 | 54 | 23 | 3.0 | 8.0 | 0.00 | 0.00 | 0.00 | 88 | 1013.6 |
| 20260504201619 | 54 | 45 | 3.0 | 6.0 | 0.00 | 0.00 | 0.00 | 88 | 1013.5 |
| 20260504200619 | 54 | 23 | 4.0 | 8.0 | 0.00 | 0.00 | 0.00 | 88 | 1013.4 |
| 20260504195619 | 54 | 23 | 6.0 | 12.0 | 0.00 | 0.00 | 0.00 | 88 | 1013.4 |
| 20260504194619 | 54 | 45 | 4.0 | 8.0 | 0.00 | 0.00 | 0.00 | 88 | 1013.3 |
| 20260504193620 | 54 | 0 | 4.0 | 10.0 | 0.00 | 0.00 | 0.00 | 88 | 1013.1 |
| 20260504192650 | 54 | 0 | 4.0 | 8.0 | 0.00 | 0.00 | 0.00 | 88 | 1012.9 |
| 20260504191631 | 54 | 45 | 4.0 | 9.0 | 0.00 | 0.00 | 0.00 | 88 | 1012.8 |
| 20260504190630 | 54 | 0 | 6.0 | 10.0 | 0.00 | 0.00 | 0.00 | 88 | 1012.7 |
| 20260504185619 | 54 | 23 | 5.0 | 10.0 | 0.00 | 0.00 | 0.00 | 87 | 1012.5 |
| 20260504184826 | 54 | 23 | 3.0 | 9.0 | 0.00 | 0.00 | 0.00 | 88 | 1012.5 |
| 20260504183830 | 54 | 0 | 6.0 | 9.0 | 0.00 | 0.00 | 0.00 | 88 | 1012.6 |
| 20260504182819 | 54 | 0 | 6.0 | 10.0 | 0.00 | 0.00 | 0.00 | 87 | 1012.4 |
| 20260504181819 | 54 | 23 | 5.0 | 10.0 | 0.00 | 0.00 | 0.00 | 87 | 1012.5 |
| 20260504180841 | 55 | 23 | 7.0 | 10.0 | 0.00 | 0.00 | 0.00 | 87 | 1012.5 |
| 20260504175819 | 55 | 0 | 5.0 | 10.0 | 0.00 | 0.00 | 0.00 | 87 | 1012.4 |
| 20260504174819 | 55 | 0 | 6.0 | 13.0 | 0.00 | 0.00 | 0.00 | 87 | 1012.6 |
| 20260504173819 | 55 | 23 | 6.0 | 9.0 | 0.00 | 0.00 | 0.00 | 87 | 1012.6 |
| 20260504172819 | 55 | 23 | 7.0 | 10.0 | 0.00 | 0.00 | 0.00 | 87 | 1012.5 |
| 20260504171819 | 55 | 23 | 8.0 | 14.0 | 0.00 | 0.00 | 0.00 | 87 | 1012.5 |
| 20260504170819 | 55 | 45 | 7.0 | 11.0 | 0.00 | 0.00 | 0.00 | 87 | 1012.4 |
| 20260504150819 | 61 | 0 | 7.0 | 13.0 | 0.00 | 0.00 | 0.00 | 80 | 1012.1 |
| 20260504140818 | 64 | 23 | 4.0 | 7.0 | 0.00 | 0.02 | 0.00 | 77 | 1012.5 |
| 20260504110640 | 61 | 23 | 1.0 | 2.0 | 0.00 | 0.16 | 0.00 | 82 | 1013.0 |
| 20260504081818 | 60 | 0.0 | 2.0 | 0.00 | 0.16 | 0.00 | 86 | 1012.7 | |
| 20260504080850 | 60 | 0.0 | 2.0 | 0.00 | 0.16 | 0.00 | 85 | 1012.6 | |
| 20260504050520 | 51 | 248 | 1.0 | 2.0 | 0.00 | 0.21 | 0.00 | 91 | 1011.2 |
| 20260504045520 | 51 | 248 | 1.0 | 1.0 | 0.00 | 0.22 | 0.00 | 91 | 1011.1 |
| 20260504044520 | 51 | 248 | 1.0 | 1.0 | 0.00 | 0.22 | 0.00 | 91 | 1011.2 |
| 20260504043519 | 51 | 248 | 1.0 | 2.0 | 0.00 | 0.22 | 0.00 | 91 | 1011.1 |
| 20260504042519 | 51 | 270 | 1.0 | 2.0 | 0.00 | 0.22 | 0.00 | 91 | 1010.9 |
| 20260504041531 | 51 | 0.0 | 0.0 | 0.00 | 0.22 | 0.00 | 91 | 1010.8 | |
| 20260504040520 | 51 | 248 | 1.0 | 1.0 | 0.00 | 0.22 | 0.00 | 91 | 1011.0 |
| 20260504035541 | 52 | 248 | 1.0 | 2.0 | 0.00 | 0.22 | 0.00 | 90 | 1011.0 |
| 20260504034520 | 52 | 0.0 | 1.0 | 0.00 | 0.22 | 0.00 | 90 | 1011.1 | |
| 20260504033541 | 52 | 248 | 1.0 | 2.0 | 0.00 | 0.22 | 0.00 | 90 | 1011.1 |
| 20260504032520 | 52 | 0.0 | 1.0 | 0.00 | 0.22 | 0.00 | 90 | 1011.1 | |
| 20260504031531 | 52 | 0.0 | 1.0 | 0.00 | 0.22 | 0.00 | 90 | 1011.1 | |
| 20260504030520 | 52 | 0.0 | 1.0 | 0.00 | 0.22 | 0.00 | 90 | 1011.1 | |
| 20260504025540 | 52 | 225 | 2.0 | 3.0 | 0.00 | 0.22 | 0.00 | 90 | 1011.0 |
| 20260504024530 | 52 | 225 | 1.0 | 2.0 | 0.00 | 0.22 | 0.00 | 90 | 1011.1 |
| 20260504023519 | 52 | 0.0 | 1.0 | 0.00 | 0.22 | 0.00 | 90 | 1011.1 | |
| 20260504022519 | 53 | 0.0 | 1.0 | 0.00 | 0.22 | 0.00 | 89 | 1011.1 | |
| 20260504021519 | 53 | 248 | 1.0 | 2.0 | 0.00 | 0.22 | 0.00 | 89 | 1010.9 |
| 20260504020519 | 53 | 270 | 1.0 | 2.0 | 0.00 | 0.22 | 0.00 | 89 | 1010.9 |
| 20260504015519 | 53 | 248 | 1.0 | 2.0 | 0.00 | 0.22 | 0.00 | 89 | 1011.0 |
| 20260504014520 | 53 | 248 | 1.0 | 3.0 | 0.00 | 0.22 | 0.00 | 89 | 1010.7 |
| 20260504013530 | 53 | 270 | 1.0 | 4.0 | 0.00 | 0.22 | 0.00 | 89 | 1010.8 |
| 20260504012530 | 53 | 293 | 1.0 | 2.0 | 0.00 | 0.22 | 0.00 | 89 | 1010.8 |
| 20260504011519 | 54 | 0.0 | 1.0 | 0.00 | 0.22 | 0.00 | 89 | 1010.9 | |
| 20260504010530 | 54 | 248 | 1.0 | 2.0 | 0.00 | 0.22 | 0.00 | 89 | 1011.0 |
| 20260504005530 | 54 | 293 | 1.0 | 2.0 | 0.00 | 0.22 | 0.00 | 89 | 1011.1 |
| 20260504004530 | 54 | 270 | 1.0 | 2.0 | 0.00 | 0.22 | 0.00 | 89 | 1010.8 |
| 20260504003519 | 54 | 270 | 1.0 | 2.0 | 0.00 | 0.22 | 0.00 | 89 | 1010.7 |
| 20260504002541 | 54 | 248 | 1.0 | 2.0 | 0.00 | 0.22 | 0.00 | 89 | 1010.8 |
| 20260504001519 | 55 | 293 | 1.0 | 2.0 | 0.00 | 0.22 | 0.00 | 89 | 1010.8 |
| 20260504000540 | 55 | 248 | 1.0 | 2.0 | 0.00 | 0.22 | 0.00 | 89 | 1010.8 |
| 20260503235531 | 55 | 248 | 2.0 | 2.0 | 0.00 | 0.22 | 0.22 | 88 | 1010.8 |
| 20260503234541 | 55 | 248 | 1.0 | 2.0 | 0.00 | 0.22 | 0.22 | 88 | 1010.7 |
| 20260503233540 | 56 | 248 | 2.0 | 2.0 | 0.00 | 0.22 | 0.22 | 88 | 1010.7 |
| 20260503232520 | 56 | 225 | 1.0 | 2.0 | 0.00 | 0.22 | 0.22 | 88 | 1010.7 |
| 20260503231530 | 56 | 0.0 | 0.0 | 0.00 | 0.22 | 0.22 | 88 | 1010.6 | |
| 20260503230540 | 56 | 225 | 1.0 | 2.0 | 0.00 | 0.22 | 0.22 | 88 | 1010.6 |
| 20260503225531 | 56 | 248 | 1.0 | 2.0 | 0.00 | 0.22 | 0.22 | 88 | 1010.7 |
| 20260503224519 | 56 | 270 | 1.0 | 2.0 | 0.00 | 0.22 | 0.22 | 87 | 1010.7 |